Location: 3 Angels Observatory
(30.5437°N, 88.5068°W)
Time: 04:34:58
(UTC-05:00)

Daily predictions for brighter satellites

Satellite Brightness Start Highest point End
(mag) Time Altitude Azimuth Time Altitude Azimuth Time Altitude Azimuth
Cosmos 2227 Rocket 4.4 00:08:49 16° W 00:10:28 18° WNW 00:14:17 10° NNW
ATLAS 3B R/B 3.1 00:11:38 10° NNW 00:17:16 57° N 00:17:16 57° N
Cosmos 2333 Rocket 4.1 00:22:37 10° NW 00:25:14 22° WNW 00:25:14 22° WNW
SL-16 R/B 3.5 00:24:24 10° NNW 00:27:44 37° NNW 00:27:44 37° NNW
CZ-2C R/B 4.3 00:43:53 10° NNE 00:46:13 27° NNE 00:46:13 27° NNE
FALCON 9 R/B 4.0 00:56:27 10° WNW 01:03:14 33° WNW 01:03:14 33° WNW
NOSS 3-4 (A) 4.3 01:17:55 48° NNE 01:17:55 48° NNE 01:22:27 10° NNE
NOSS 3-4 (C) 4.3 01:18:01 48° NNE 01:18:01 48° NNE 01:22:33 10° NNE
Cosmos 2366 rocket 4.5 01:53:00 55° NNE 01:53:00 55° NNE 01:57:42 10° N
Cosmos 1844 Rocket 4.5 01:58:18 23° E 01:58:18 23° E 02:01:30 10° NE
Cosmos 2263 Rocket 3.3 02:00:53 40° NNW 02:00:53 40° NNW 02:04:47 10° N
Cosmos 909 Rocket 4.3 02:01:27 65° NNE 02:01:27 65° NNE 02:07:17 10° NNE
CZ-2C R/B 4.5 02:02:40 35° NW 02:02:40 35° NW 02:06:02 10° NNW
Cosmos 2278 Rocket 4.2 02:18:51 17° E 02:18:51 17° E 02:22:19 10° ENE
Cosmos 1727 Rocket 4.2 02:13:22 10° N 02:18:33 64° N 02:18:33 64° N
Cosmos 1867 4.4 02:15:52 10° NNW 02:19:56 47° N 02:19:56 47° N
CZ-4C R/B 3.0 02:22:16 10° NW 02:28:38 62° WNW 02:28:38 62° WNW
USA 234 4.3 02:23:40 10° ESE 02:29:42 42° NE 02:35:44 10° NNW
SL-08 R/B 4.4 02:32:29 43° NE 02:32:29 43° NE 02:36:37 10° N
Resurs 1-4 Rocket 4.2 02:32:25 10° NE 02:35:45 17° E 02:36:38 16° ESE
ATLAS 2A CENTAUR R/B 3.1 02:38:20 64° SSE 02:38:20 64° SSE 02:59:02 10° ESE
Cosmos 1452 Rocket 4.0 02:42:56 57° NE 02:42:56 57° NE 02:47:10 10° NNE
ARIANE 5 R/B 3.8 02:43:47 10° NE 02:48:10 30° E 02:48:13 30° E
NOSS 3-2 (C) 3.9 02:42:46 10° NW 02:50:29 71° WSW 02:51:10 68° SSW
ADEOS 3.8 02:49:55 10° NNE 02:54:43 65° ENE 02:54:43 65° ENE
CBERS-1 4.3 02:52:04 10° N 02:56:24 61° NNW 02:56:24 61° NNW
Okean 1 Rocket 4.1 02:59:23 42° N 02:59:23 42° N 03:02:23 10° N
Okean 1-7 Rocket 4.4 02:54:08 10° N 02:57:55 50° NE 02:57:55 50° NE
Cosmos 1000 Rocket 4.3 02:56:18 10° N 03:02:29 86° E 03:03:01 75° SSE
Cosmos 1461 4.0 03:04:34 46° E 03:04:34 46° E 03:08:23 10° NE
Skynet4D Del rocket 4.5 03:06:31 36° ESE 03:06:31 36° ESE 03:09:54 10° E
SL-16 R/B 3.9 03:01:41 10° SE 03:07:15 35° ENE 03:12:49 10° N
Gbstr 26 Del rocket 4.4 03:08:34 30° N 03:08:34 30° N 03:11:04 10° NNE
NPP 4.3 03:05:37 10° N 03:10:15 44° WNW 03:10:15 44° WNW
Okean O Rocket 4.2 03:11:03 10° ENE 03:12:40 12° E 03:14:16 10° ESE
NOSS 2-2 (D) 4.1 03:16:07 53° NNE 03:16:07 53° NNE 03:19:37 10° NNE
Cosmos 1605 Rocket 4.1 03:15:16 49° SSE 03:16:49 67° E 03:22:59 10° NNE
Cosmos 1821 Rocket 4.0 03:17:26 62° WSW 03:18:03 66° W 03:24:25 10° N
ERS-2 4.3 03:18:18 10° NNW 03:19:48 20° NNW 03:19:48 20° NNW
Meteor 2-14 Rocket 4.3 03:20:40 65° S 03:21:39 88° W 03:27:44 10° N
GP-B 4.1 03:17:45 10° N 03:20:46 36° NW 03:20:46 36° NW
Cosmos 724 4.5 03:17:37 10° NNW 03:23:47 76° ENE 03:28:29 18° SSE
Meteor 1-11 Rocket 3.7 03:25:35 65° SSW 03:26:27 79° W 03:32:26 10° N
Cosmos 2123 Rocket 4.1 03:20:43 10° N 03:27:03 73° E 03:29:55 35° SSE
Meteor 2-21 Rocket 4.3 03:26:37 61° WSW 03:27:22 66° W 03:33:25 10° N
OAO 3 Copernicus 4.1 03:29:32 86° SW 03:29:39 88° SSE 03:34:41 10° ENE
NOSS 2-2 (C) 4.1 03:30:09 47° NNW 03:30:09 47° NNW 03:33:57 10° NNE
Cosmos 407 Rocket 3.9 03:25:41 10° NNW 03:29:52 47° WNW 03:29:52 47° WNW
Cosmos 1025 Rocket 3.5 03:26:35 10° N 03:30:49 57° E 03:31:24 51° ESE
CZ-2D R/B 2.4 03:26:03 10° NNE 03:31:28 63° ESE 03:33:04 44° SSE
Spot 4 Rocket 4.1 03:28:46 10° N 03:33:48 56° WNW 03:34:03 55° W
Meteor 1-13 Rocket 4.1 03:31:47 10° N 03:37:30 76° W 03:38:58 51° SSW
Meteor 2-15 4.4 03:32:20 10° N 03:38:31 85° E 03:41:21 34° S
Cosmos 676 Rocket 3.9 03:33:35 10° NNW 03:38:42 62° WSW 03:38:46 62° WSW
Cosmos 1400 Rocket 2.8 03:40:17 74° ENE 03:40:17 74° ENE 03:44:01 10° N
Cosmos 1844 Rocket 3.5 03:39:58 33° WNW 03:40:36 34° WNW 03:45:44 10° N
Yuri Rocket 3.4 03:43:13 52° WSW 03:44:31 71° S 03:49:19 10° E
Cosmos 1844 4.3 03:47:31 37° W 03:48:30 40° WNW 03:53:53 10° N
Cosmos 1544 Rocket 3.4 03:47:56 68° SSW 03:48:30 87° W 03:52:55 10° N
MOS 1-B 4.3 03:42:53 10° NNE 03:48:43 82° ESE 03:51:10 37° S
USA 161 4.3 03:54:31 12° NNW 03:54:31 12° NNW 03:54:48 10° NNW
IRS-1D 3.6 03:49:08 10° N 03:54:04 57° WNW 03:55:04 48° WSW
Meteor 1-23 Rocket 4.3 03:50:47 10° N 03:56:30 75° E 04:00:56 17° SSE
Cosmos 2297 3.7 03:58:40 35° S 04:01:08 79° ESE 04:06:50 10° NNE
Cosmos 2278 Rocket 2.6 04:00:42 37° WSW 04:02:18 47° WNW 04:07:46 10° N
Centaur AC-125 2.8 04:03:17 39° SSE 04:03:17 39° SSE 04:07:44 10° ESE
UNK 3.6 04:02:45 35° S 04:04:38 75° W 04:09:16 10° NNW
COSMOS 2406 4.1 03:59:53 10° NW 04:04:28 29° W 04:04:28 29° W
Cosmos 1954 Rocket 4.3 04:00:57 10° NNW 04:05:49 43° WSW 04:06:39 39° SW
H-2A R/B 4.3 04:00:51 27° WSW 04:05:59 43° SSW 05:00:05 10° SE
Cosmos 1315 Rocket 2.7 04:05:42 48° S 04:06:47 87° WNW 04:10:52 10° N
Delta 2 Rocket 4.3 04:05:48 33° WSW 04:07:59 42° SSW 04:13:45 10° SE
Tiangong 1 3.6 04:11:17 12° SE 04:11:17 12° SE 04:11:37 10° SE
Centaur D-1AR AC-48 3.7 04:00:39 10° W 04:11:39 19° S 04:13:19 10° SSE
Cosmos 1459 Rocket 4.2 04:04:45 17° S 04:09:46 72° E 04:16:04 10° N
Meteor 1-5 Rocket 4.2 04:06:43 29° SSW 04:09:55 81° W 04:15:45 10° N
ATLAS 5 CENTAUR R/B 3.6 04:05:05 10° NNW 04:10:55 44° ENE 04:17:02 10° SE
CZ-4B R/B 4.4 04:07:00 10° NNE 04:11:11 36° E 04:14:56 12° SSE
Cosmos 2100 Rocket 4.0 04:07:42 19° S 04:12:15 82° E 04:18:34 10° N
USA 234 3.5 04:06:24 10° SSE 04:12:33 44° SW 04:18:45 10° NW
OTV 4 2.3 04:14:30 20° SE 04:14:30 20° SE 04:15:35 10° SE
MTI 3.7 04:13:14 47° S 04:14:05 87° WSW 04:17:24 10° NNW
Resurs 1-4 Rocket 2.6 04:10:42 10° N 04:15:43 44° WNW 04:17:43 31° WSW
Cosmos 1892 Rocket 3.5 04:12:35 10° NNW 04:16:50 58° W 04:18:28 34° SSW
Cosmos 614 Rocket 3.9 04:12:15 10° NNW 04:17:25 89° E 04:22:31 10° SSE
IRS-1C Rocket 4.1 04:12:23 10° NNE 04:17:41 87° ESE 04:21:07 22° SSW
NOSS 5 (C) 4.3 04:18:19 51° SW 04:19:01 72° WNW 04:22:09 10° NNE
Fermi 4.3 04:19:01 36° SSW 04:19:34 38° S 04:23:22 10° ESE
Cosmos 1975 3.3 04:19:22 19° S 04:22:07 59° E 04:26:03 10° NNE
Cosmos 1633 4.3 04:23:10 18° WNW 04:23:10 18° WNW 04:25:24 10° NNW
Okean 2 3.3 04:20:30 10° NNW 04:24:33 62° W 04:26:43 26° SSW
CZ-4B R/B 3.4 04:19:33 10° NNE 04:25:14 73° ESE 04:30:16 13° S
CZ-3C R/B 2.5 04:25:10 16° S 04:25:32 17° SSE 04:29:16 10° ESE
Cosmos 2082 Rocket 3.7 04:21:21 10° N 04:26:41 39° ENE 04:31:57 10° SE
ARIANE 5 R/B 3.8 04:23:13 10° NNW 04:27:04 23° WNW 04:28:34 20° W
Cosmos 1110 Rocket 4.0 04:24:38 25° SSW 04:27:46 74° WNW 04:33:05 10° NNE
Meteor 2-4 Rocket 3.9 04:26:52 10° NNW 04:31:57 44° W 04:35:26 19° SSW
CENTAUR R/B 3.2 04:28:20 10° NW 04:36:07 53° WSW 04:44:06 10° S
Thor Agena Rocket 4.1 04:31:03 10° SSE 04:36:09 61° ENE 04:41:14 10° N
Timation 2 Rocket 3.8 04:31:40 10° NNW 04:37:46 87° WSW 04:43:42 10° SSE
Okean-O 3.9 04:33:47 10° NNE 04:37:56 38° E 04:42:03 10° SSE
COSMOS 2487 3.5 04:35:51 10° NW 04:38:55 26° W 04:39:14 26° WSW
Cosmos 2061 Rocket 4.1 04:34:26 16° SSW 04:39:36 64° W 04:45:56 10° N
ADEOS II 3.8 04:35:29 10° NE 04:40:04 30° E 04:44:36 10° SSE
ASC 2 Rocket 3.7 04:39:09 24° SW 04:41:05 35° S 04:44:48 10° ESE
Cosmos 1500 3.9 04:38:19 10° S 04:42:06 56° E 04:45:55 10° NNE
UNKNOWN OBJECT B 4.2 04:39:14 10° NNW 04:42:33 24° WNW 04:44:04 19° WSW
PSLV R/B 3.7 04:41:06 26° SSW 04:42:40 50° SE 04:45:55 10° ENE
CZ-2D R/B 4.3 04:40:13 10° N 04:43:49 32° WNW 04:45:46 21° WSW
BREEZE-M DEB (TANK) 3.9 04:40:39 18° WSW 04:43:50 41° NW 04:47:09 10° NNE
Cosmos 1602 Rocket 3.4 04:43:36 10° N 04:47:57 80° W 04:52:17 10° S
Okean O Rocket 2.1 04:45:04 10° N 04:49:10 42° WNW 04:52:07 17° SW
Cosmos 1331 Rocket 4.3 04:46:57 18° SW 04:50:41 49° WNW 04:55:44 10° N
SL-16 R/B 3.4 04:46:47 15° SSW 04:50:47 29° W 04:56:04 10° NW
Skynet4D Del rocket 3.7 04:52:09 13° W 04:56:50 53° S 05:02:24 10° ESE
SME Rocket 4.4 04:57:33 16° WSW 04:58:29 17° W 05:01:03 10° NW
Atlas Centaur 2 4.2 04:52:28 11° SSW 04:59:25 31° SSE 05:06:18 10° E
CZ-2C R/B 4.0 04:55:33 10° S 05:00:05 48° W 05:04:42 10° NNW
BREEZE-M TANK 2.6 05:00:44 10° WNW 05:03:28 60° SW 05:10:29 10° SE
Cosmos 1626 Rocket 3.9 05:02:02 10° NNW 05:06:13 46° W 05:10:25 10° SSW
Cosmos 2084 4.2 05:02:41 10° S 05:06:24 42° ESE 05:10:03 10° NE
CZ-2D R/B 4.1 05:08:25 10° NW 05:10:56 13° WNW 05:13:27 10° W
Cosmos 1833 Rocket 2.9 05:05:22 10° NNW 05:11:00 76° ENE 05:16:35 10° SSE
NAVSTAR 52 R/B(PAM-D 4.2 05:09:17 13° W 05:11:02 44° NNW 05:13:45 10° NE
Shi Jian 4 4.0 05:09:22 10° W 05:12:35 34° SSW 05:14:22 10° SE
Cosmos 2016 Rocket 4.4 05:08:03 10° SSW 05:14:03 45° W 05:20:03 10° N
PSLV R/B 3.5 05:10:41 10° N 05:14:56 84° W 05:19:06 10° SSW
Meteor 1-31 Rocket 4.2 05:15:08 10° NNE 05:18:53 41° E 05:22:37 10° S
Cosmos 2233 Rocket 4.1 05:20:24 10° S 05:26:40 85° E 05:32:55 10° N
Cosmos 1725 Rocket 4.2 05:21:44 10° SSW 05:27:51 54° W 05:33:59 10° N
